Torna al catalogo

SCOUT A DEB

AttivoPO
NORAD 2994·DEBRIS·🇺🇸 United States

Lanciato Sep 25, 1967 da Vandenberg Space Force Base

Loading…

Prossimi Passaggi (prossime 24 ore)

TLE

AggiornatoSource: Space-Track

Epoca: Sep 12, 2026, 16:58 UTC

1 02994U 67092C   26255.70697358  .00000315  00000-0  20944-3 0  9994
2 02994  89.4405 339.8239 0086395 293.5361  65.6757 13.97506169987000

Traccia SCOUT A DEB in tempo reale con AllMySat

Download on the App Store